Time,TemperatureF,DewpointF,PressureIn,WindDirection,WindDirectionDegrees,WindSpeedMPH,WindSpeedGustMPH,Humidity,HourlyPrecipIn,Conditions,Clouds,dailyrainin,SoftwareType,DateUTC
2013-05-13 00:05:00,68.9,44.8,29.86,SW,225,3.8,4.0,42,0.00,,,0.00,WUHU216HW,2013-05-13 06:05:00,
2013-05-13 00:16:00,68.6,45.1,29.86,WSW,248,5.4,5.4,43,0.00,,,0.00,WUHU216HW,2013-05-13 06:16:00,
2013-05-13 00:26:00,68.0,45.2,29.86,WSW,248,3.4,4.3,44,0.00,,,0.00,WUHU216HW,2013-05-13 06:26:00,
2013-05-13 00:36:00,67.9,44.5,29.86,SW,225,0.7,3.4,43,0.00,,,0.00,WUHU216HW,2013-05-13 06:36:00,
2013-05-13 00:46:00,67.5,44.7,29.86,SSW,203,2.0,4.0,44,0.00,,,0.00,WUHU216HW,2013-05-13 06:46:00,
2013-05-13 00:56:00,67.1,44.4,29.86,SE,135,4.7,4.7,44,0.00,,,0.00,WUHU216HW,2013-05-13 06:56:00,
2013-05-13 01:06:00,66.8,44.6,29.86,SSE,158,1.8,4.0,45,0.00,,,0.00,WUHU216HW,2013-05-13 07:06:00,
2013-05-13 01:16:00,66.6,44.6,29.87,SSE,158,2.9,4.0,45,0.00,,,0.00,WUHU216HW,2013-05-13 07:16:00,
2013-05-13 01:26:00,66.2,44.2,29.86,SSE,158,2.2,3.4,45,0.00,,,0.00,WUHU216HW,2013-05-13 07:26:00,
2013-05-13 01:36:00,65.9,44.5,29.87,SSE,158,4.7,4.7,46,0.00,,,0.00,WUHU216HW,2013-05-13 07:36:00,
2013-05-13 01:46:00,65.3,44.5,29.87,North,0,2.5,4.0,47,0.00,,,0.00,WUHU216HW,2013-05-13 07:46:00,
2013-05-13 01:56:00,65.0,44.7,29.87,SSE,158,1.3,1.8,48,0.00,,,0.00,WUHU216HW,2013-05-13 07:56:00,
2013-05-13 02:06:00,64.6,44.4,29.87,SSW,203,2.0,2.7,48,0.00,,,0.00,WUHU216HW,2013-05-13 08:06:00,
2013-05-13 02:16:00,64.4,44.2,29.87,SSW,203,3.4,3.4,48,0.00,,,0.00,WUHU216HW,2013-05-13 08:16:00,
2013-05-13 02:26:00,64.1,44.5,29.87,South,180,0.4,2.2,49,0.00,,,0.00,WUHU216HW,2013-05-13 08:26:00,
2013-05-13 02:36:00,63.9,44.3,29.87,SSW,203,1.8,4.0,49,0.00,,,0.00,WUHU216HW,2013-05-13 08:36:00,
2013-05-13 02:46:00,63.7,44.7,29.86,SW,225,0.0,2.7,50,0.00,,,0.00,WUHU216HW,2013-05-13 08:46:00,
2013-05-13 02:56:00,63.5,44.6,29.87,SE,135,0.0,0.9,50,0.00,,,0.00,WUHU216HW,2013-05-13 08:56:00,
2013-05-13 03:06:00,63.0,44.6,29.87,SSE,158,0.7,1.1,51,0.00,,,0.00,WUHU216HW,2013-05-13 09:06:00,
2013-05-13 03:16:00,62.6,44.2,29.87,South,180,0.7,1.3,51,0.00,,,0.00,WUHU216HW,2013-05-13 09:16:00,
2013-05-13 03:26:00,62.3,44.4,29.87,South,180,1.3,1.8,52,0.00,,,0.00,WUHU216HW,2013-05-13 09:26:00,
2013-05-13 03:36:00,62.1,44.2,29.87,SE,135,0.4,0.9,52,0.00,,,0.00,WUHU216HW,2013-05-13 09:36:00,
2013-05-13 03:46:00,61.9,44.1,29.87,SSE,158,0.0,2.9,52,0.00,,,0.00,WUHU216HW,2013-05-13 09:46:00,
2013-05-13 03:56:00,61.6,44.2,29.87,SW,225,1.1,3.4,53,0.00,,,0.00,WUHU216HW,2013-05-13 09:56:00,
2013-05-13 04:06:00,61.4,44.1,29.87,WNW,293,2.5,2.5,53,0.00,,,0.00,WUHU216HW,2013-05-13 10:06:00,
2013-05-13 04:16:00,61.2,44.9,29.87,SW,225,2.0,4.9,55,0.00,,,0.00,WUHU216HW,2013-05-13 10:16:00,
2013-05-13 04:27:00,61.0,44.2,29.87,WSW,248,1.1,2.2,54,0.00,,,0.00,WUHU216HW,2013-05-13 10:27:00,
2013-05-13 04:37:00,60.8,45.0,29.87,SW,225,3.8,3.8,56,0.00,,,0.00,WUHU216HW,2013-05-13 10:37:00,
2013-05-13 04:47:00,60.8,45.0,29.87,NNE,23,0.9,4.0,56,0.00,,,0.00,WUHU216HW,2013-05-13 10:47:00,
2013-05-13 04:57:00,60.5,44.7,29.87,SSE,158,3.4,3.8,56,0.00,,,0.00,WUHU216HW,2013-05-13 10:57:00,
2013-05-13 05:07:00,59.9,44.6,29.87,SSE,158,3.8,6.0,57,0.00,,,0.00,WUHU216HW,2013-05-13 11:07:00,
2013-05-13 05:17:00,59.6,44.7,29.87,SSE,158,3.8,3.8,58,0.00,,,0.00,WUHU216HW,2013-05-13 11:17:00,
2013-05-13 05:27:00,59.4,45.1,29.88,SSE,158,2.7,4.7,59,0.00,,,0.00,WUHU216HW,2013-05-13 11:27:00,
2013-05-13 05:37:00,59.2,45.4,29.88,SSW,203,4.0,6.3,60,0.00,,,0.00,WUHU216HW,2013-05-13 11:37:00,
2013-05-13 05:47:00,59.0,45.2,29.87,SSE,158,7.6,7.6,60,0.00,,,0.00,WUHU216HW,2013-05-13 11:47:00,
2013-05-13 05:57:00,59.0,45.2,29.87,ESE,113,6.3,7.2,60,0.00,,,0.00,WUHU216HW,2013-05-13 11:57:00,
2013-05-13 06:07:00,58.7,44.8,29.87,SSE,158,5.4,6.9,60,0.00,,,0.00,WUHU216HW,2013-05-13 12:07:00,
2013-05-13 06:17:00,58.3,44.9,29.87,SSW,203,5.1,7.6,61,0.00,,,0.00,WUHU216HW,2013-05-13 12:17:00,
2013-05-13 06:27:00,58.5,45.1,29.88,SSE,158,3.8,4.7,61,0.00,,,0.00,WUHU216HW,2013-05-13 12:27:00,
2013-05-13 06:37:00,58.3,44.9,29.88,SSW,203,5.1,5.1,61,0.00,,,0.00,WUHU216HW,2013-05-13 12:37:00,
2013-05-13 06:47:00,58.1,45.2,29.89,SE,135,2.2,5.1,62,0.00,,,0.00,WUHU216HW,2013-05-13 12:47:00,
2013-05-13 06:57:00,57.6,45.1,29.88,South,180,4.5,8.1,63,0.00,,,0.00,WUHU216HW,2013-05-13 12:57:00,
2013-05-13 07:08:00,57.8,45.6,29.88,South,180,3.6,7.4,64,0.00,,,0.00,WUHU216HW,2013-05-13 13:08:00,
2013-05-13 07:18:00,58.1,46.4,29.88,SSE,158,4.7,8.5,65,0.00,,,0.00,WUHU216HW,2013-05-13 13:18:00,
2013-05-13 07:28:00,58.7,46.5,29.89,SW,225,4.5,7.6,64,0.00,,,0.00,WUHU216HW,2013-05-13 13:28:00,
2013-05-13 07:38:00,59.0,46.8,29.89,South,180,8.3,9.4,64,0.00,,,0.00,WUHU216HW,2013-05-13 13:38:00,
2013-05-13 07:48:00,59.2,47.0,29.88,South,180,6.9,6.9,64,0.00,,,0.00,WUHU216HW,2013-05-13 13:48:00,
2013-05-13 07:58:00,60.8,49.1,29.88,SSW,203,6.7,8.1,65,0.00,,,0.00,WUHU216HW,2013-05-13 13:58:00,
2013-05-13 08:08:00,61.9,49.2,29.88,SSW,203,4.0,8.1,63,0.00,,,0.00,WUHU216HW,2013-05-13 14:08:00,
2013-05-13 08:18:00,62.1,49.3,29.88,SSW,203,2.9,7.4,63,0.00,,,0.00,WUHU216HW,2013-05-13 14:18:00,
2013-05-13 08:28:00,63.2,50.0,29.87,SSW,203,3.6,8.1,62,0.00,,,0.00,WUHU216HW,2013-05-13 14:28:00,
2013-05-13 08:38:00,64.3,50.5,29.87,SSE,158,2.5,5.4,61,0.00,,,0.00,WUHU216HW,2013-05-13 14:38:00,
2013-05-13 08:48:00,65.2,50.5,29.87,SSE,158,3.6,5.8,59,0.00,,,0.00,WUHU216HW,2013-05-13 14:48:00,
2013-05-13 08:58:00,66.2,50.6,29.87,SSW,203,6.9,8.9,57,0.00,,,0.00,WUHU216HW,2013-05-13 14:58:00,
2013-05-13 09:08:00,67.3,51.0,29.87,SW,225,5.4,8.3,56,0.00,,,0.00,WUHU216HW,2013-05-13 15:08:00,
2013-05-13 09:18:00,68.6,51.2,29.86,SSW,203,6.5,7.8,54,0.00,,,0.00,WUHU216HW,2013-05-13 15:18:00,
2013-05-13 09:28:00,69.7,51.2,29.86,SSW,203,6.3,7.6,52,0.00,,,0.00,WUHU216HW,2013-05-13 15:28:00,
2013-05-13 09:38:00,70.0,52.1,29.86,SSW,203,4.7,6.5,53,0.00,,,0.00,WUHU216HW,2013-05-13 15:38:00,
2013-05-13 09:48:00,70.4,51.4,29.85,SSW,203,5.8,7.2,51,0.00,,,0.00,WUHU216HW,2013-05-13 15:48:00,
2013-05-13 09:58:00,70.6,51.6,29.85,SW,225,2.7,5.8,51,0.00,,,0.00,WUHU216HW,2013-05-13 15:58:00,
2013-05-13 10:08:00,71.3,51.7,29.85,SW,225,3.6,7.6,50,0.00,,,0.00,WUHU216HW,2013-05-13 16:08:00,
2013-05-13 10:18:00,71.3,51.7,29.85,WSW,248,2.7,4.9,50,0.00,,,0.00,WUHU216HW,2013-05-13 16:18:00,
2013-05-13 10:29:00,71.3,51.1,29.84,SW,225,7.8,7.8,49,0.00,,,0.00,WUHU216HW,2013-05-13 16:29:00,
2013-05-13 10:39:00,71.6,51.4,29.84,SW,225,6.5,6.5,49,0.00,,,0.00,WUHU216HW,2013-05-13 16:39:00,
2013-05-13 10:49:00,72.2,51.3,29.84,SW,225,6.3,6.9,48,0.00,,,0.00,WUHU216HW,2013-05-13 16:49:00,
2013-05-13 10:59:00,72.4,50.9,29.83,West,270,0.7,5.4,47,0.00,,,0.00,WUHU216HW,2013-05-13 16:59:00,
2013-05-13 11:09:00,73.1,51.6,29.83,WNW,293,2.0,4.0,47,0.00,,,0.00,WUHU216HW,2013-05-13 17:09:00,
2013-05-13 11:19:00,73.4,50.0,29.83,West,270,4.3,4.3,44,0.00,,,0.00,WUHU216HW,2013-05-13 17:19:00,
2013-05-13 11:29:00,74.0,50.6,29.82,North,0,3.1,4.9,44,0.00,,,0.00,WUHU216HW,2013-05-13 17:29:00,
2013-05-13 11:39:00,74.0,50.0,29.82,NNE,23,3.8,6.0,43,0.00,,,0.00,WUHU216HW,2013-05-13 17:39:00,
2013-05-13 11:49:00,74.7,50.0,29.81,WNW,293,3.4,4.0,42,0.00,,,0.00,WUHU216HW,2013-05-13 17:49:00,
2013-05-13 11:59:00,75.2,51.8,29.81,North,0,4.3,4.7,44,0.00,,,0.00,WUHU216HW,2013-05-13 17:59:00,
2013-05-13 12:09:00,75.8,50.4,29.81,NNW,338,2.9,5.6,41,0.00,,,0.00,WUHU216HW,2013-05-13 18:09:00,
2013-05-13 12:19:00,75.6,50.2,29.80,NW,315,1.8,3.8,41,0.00,,,0.00,WUHU216HW,2013-05-13 18:19:00,
2013-05-13 12:29:00,75.6,50.9,29.79,NNE,23,2.5,4.0,42,0.00,,,0.00,WUHU216HW,2013-05-13 18:29:00,
2013-05-13 12:39:00,76.1,51.4,29.79,West,270,4.0,4.9,42,0.00,,,0.00,WUHU216HW,2013-05-13 18:39:00,
2013-05-13 12:49:00,76.5,50.5,29.79,West,270,4.3,6.9,40,0.00,,,0.00,WUHU216HW,2013-05-13 18:49:00,
2013-05-13 12:59:00,76.1,50.8,29.78,NNE,23,2.2,7.4,41,0.00,,,0.00,WUHU216HW,2013-05-13 18:59:00,
2013-05-13 13:09:00,77.0,51.6,29.78,South,180,1.3,3.8,41,0.00,,,0.00,WUHU216HW,2013-05-13 19:09:00,
2013-05-13 13:19:00,78.8,53.2,29.78,SSW,203,2.5,4.3,41,0.00,,,0.00,WUHU216HW,2013-05-13 19:19:00,
2013-05-13 13:29:00,80.1,53.7,29.76,ESE,113,5.4,5.4,40,0.00,,,0.00,WUHU216HW,2013-05-13 19:29:00,
2013-05-13 13:48:00,80.1,52.1,29.75,NNW,338,0.7,7.6,38,0.00,,,0.00,WUHU216HW,2013-05-13 19:48:00,
2013-05-13 14:00:00,77.6,51.4,29.75,WNW,293,2.7,5.4,40,0.00,,,0.00,WUHU216HW,2013-05-13 20:00:00,
2013-05-13 14:10:00,78.7,52.4,29.74,ENE,68,2.5,5.6,40,0.00,,,0.00,WUHU216HW,2013-05-13 20:10:00,
2013-05-13 14:20:00,80.3,51.6,29.73,WSW,248,10.7,10.7,37,0.00,,,0.00,WUHU216HW,2013-05-13 20:20:00,
2013-05-13 14:30:00,80.6,51.1,29.73,West,270,4.0,10.5,36,0.00,,,0.00,WUHU216HW,2013-05-13 20:30:00,
2013-05-13 14:41:00,81.7,48.9,29.72,SW,225,5.8,14.8,32,0.00,,,0.00,WUHU216HW,2013-05-13 20:41:00,
2013-05-13 14:51:00,82.4,48.7,29.71,WSW,248,11.4,14.8,31,0.00,,,0.00,WUHU216HW,2013-05-13 20:51:00,
2013-05-13 15:01:00,82.8,49.0,29.70,West,270,5.8,9.2,31,0.00,,,0.00,WUHU216HW,2013-05-13 21:01:00,
2013-05-13 15:11:00,83.0,49.1,29.70,SSW,203,7.8,8.3,31,0.00,,,0.00,WUHU216HW,2013-05-13 21:11:00,
2013-05-13 15:21:00,83.3,48.7,29.69,SSW,203,1.8,6.3,30,0.00,,,0.00,WUHU216HW,2013-05-13 21:21:00,
2013-05-13 15:31:00,83.2,47.5,29.68,West,270,7.6,9.4,29,0.00,,,0.00,WUHU216HW,2013-05-13 21:31:00,
2013-05-13 15:41:00,82.8,47.2,29.66,West,270,9.2,9.2,29,0.00,,,0.00,WUHU216HW,2013-05-13 21:41:00,
2013-05-13 15:51:00,82.8,47.2,29.64,SW,225,7.6,12.5,29,0.00,,,0.00,WUHU216HW,2013-05-13 21:51:00,
2013-05-13 16:01:00,82.3,46.7,29.63,WSW,248,7.2,8.9,29,0.00,,,0.00,WUHU216HW,2013-05-13 22:01:00,
2013-05-13 16:11:00,80.8,45.5,29.63,WSW,248,6.9,12.3,29,0.00,,,0.00,WUHU216HW,2013-05-13 22:11:00,
2013-05-13 16:21:00,79.6,48.6,29.63,WSW,248,8.5,8.5,34,0.00,,,0.00,WUHU216HW,2013-05-13 22:21:00,
2013-05-13 16:31:00,78.1,50.4,29.62,West,270,5.1,5.1,38,0.00,,,0.00,WUHU216HW,2013-05-13 22:31:00,
2013-05-13 16:41:00,77.4,49.0,29.61,West,270,6.0,6.3,37,0.00,,,0.00,WUHU216HW,2013-05-13 22:41:00,
2013-05-13 16:51:00,75.6,50.9,29.60,West,270,3.1,7.8,42,0.00,,,0.00,WUHU216HW,2013-05-13 22:51:00,
2013-05-13 17:01:00,73.8,53.4,29.68,WSW,248,18.1,26.6,49,0.03,,,0.00,WUHU216HW,2013-05-13 23:01:00,
2013-05-13 17:11:00,65.9,51.2,29.67,West,270,13.4,20.1,59,0.17,,,0.18,WUHU216HW,2013-05-13 23:11:00,
2013-05-13 17:21:00,65.5,51.3,29.66,West,270,3.6,16.3,60,0.17,,,0.18,WUHU216HW,2013-05-13 23:21:00,
2013-05-13 17:31:00,66.1,52.3,29.67,West,270,4.3,7.6,61,0.17,,,0.18,WUHU216HW,2013-05-13 23:31:00,
2013-05-13 17:41:00,66.4,52.6,29.69,NNE,23,1.1,5.4,61,0.17,,,0.18,WUHU216HW,2013-05-13 23:41:00,
2013-05-13 17:51:00,66.6,51.8,29.70,NW,315,3.4,6.3,59,0.18,,,0.19,WUHU216HW,2013-05-13 23:51:00,
2013-05-13 18:01:00,66.1,51.4,29.73,WSW,248,10.3,10.3,59,0.08,,,0.19,WUHU216HW,2013-05-14 00:01:00,
2013-05-13 18:11:00,64.3,52.2,29.71,WNW,293,8.9,15.9,65,0.01,,,0.19,WUHU216HW,2013-05-14 00:11:00,
2013-05-13 18:21:00,62.6,52.3,29.75,WSW,248,19.2,19.2,69,0.04,,,0.21,WUHU216HW,2013-05-14 00:21:00,
2013-05-13 18:31:00,62.1,52.3,29.71,West,270,6.5,15.7,70,0.05,,,0.23,WUHU216HW,2013-05-14 00:31:00,
2013-05-13 18:41:00,63.4,52.7,29.70,West,270,2.2,6.3,68,0.04,,,0.23,WUHU216HW,2013-05-14 00:41:00,
2013-05-13 18:52:00,64.8,53.6,29.72,ENE,68,4.7,5.6,67,0.04,,,0.23,WUHU216HW,2013-05-14 00:52:00,
2013-05-13 19:02:00,64.3,53.5,29.73,NNE,23,7.4,9.2,68,0.04,,,0.23,WUHU216HW,2013-05-14 01:02:00,
2013-05-13 19:12:00,63.0,52.7,29.72,ENE,68,5.4,14.8,69,0.04,,,0.23,WUHU216HW,2013-05-14 01:12:00,
2013-05-13 19:22:00,62.6,51.9,29.73,NNW,338,3.4,9.8,68,0.00,,,0.23,WUHU216HW,2013-05-14 01:22:00,
2013-05-13 19:32:00,63.0,51.8,29.75,WNW,293,0.4,7.6,67,0.00,,,0.23,WUHU216HW,2013-05-14 01:32:00,
2013-05-13 19:42:00,63.4,51.8,29.76,North,0,0.9,2.5,66,0.00,,,0.23,WUHU216HW,2013-05-14 01:42:00,
2013-05-13 19:52:00,63.4,51.8,29.76,SW,225,2.2,3.8,66,0.00,,,0.23,WUHU216HW,2013-05-14 01:52:00,
2013-05-13 20:02:00,62.6,51.5,29.78,West,270,8.9,12.1,67,0.00,,,0.23,WUHU216HW,2013-05-14 02:02:00,
2013-05-13 20:12:00,61.0,48.0,29.87,WSW,248,20.1,24.6,62,0.02,,,0.23,WUHU216HW,2013-05-14 02:12:00,
2013-05-13 20:22:00,57.4,46.1,29.79,West,270,4.3,15.7,66,0.05,,,0.28,WUHU216HW,2013-05-14 02:22:00,
2013-05-13 20:32:00,56.5,45.6,29.82,West,270,3.1,10.5,67,0.05,,,0.28,WUHU216HW,2013-05-14 02:32:00,
2013-05-13 20:42:00,56.2,44.9,29.84,NE,45,4.3,5.8,66,0.05,,,0.28,WUHU216HW,2013-05-14 02:42:00,
2013-05-13 20:52:00,55.8,45.0,29.86,NNE,23,8.1,13.4,67,0.05,,,0.28,WUHU216HW,2013-05-14 02:52:00,
2013-05-13 21:02:00,55.1,43.5,29.86,NNW,338,2.5,5.4,65,0.07,,,0.30,WUHU216HW,2013-05-14 03:02:00,
2013-05-13 21:12:00,54.7,44.4,29.86,East,90,4.9,8.3,68,0.04,,,0.31,WUHU216HW,2013-05-14 03:12:00,
2013-05-13 21:22:00,54.0,45.2,29.88,NW,315,1.3,9.8,72,0.04,,,0.32,WUHU216HW,2013-05-14 03:22:00,
2013-05-13 21:32:00,53.8,43.9,29.89,West,270,3.6,6.5,69,0.05,,,0.33,WUHU216HW,2013-05-14 03:32:00,
2013-05-13 21:42:00,53.3,43.7,29.86,NW,315,3.6,10.1,70,0.06,,,0.34,WUHU216HW,2013-05-14 03:42:00,
2013-05-13 21:52:00,53.1,42.4,29.89,WNW,293,4.0,14.3,67,0.05,,,0.34,WUHU216HW,2013-05-14 03:52:00,
2013-05-13 22:02:00,53.1,42.4,29.89,NNE,23,3.4,8.5,67,0.04,,,0.34,WUHU216HW,2013-05-14 04:02:00,
2013-05-13 22:12:00,52.9,43.5,29.89,ENE,68,8.1,9.2,70,0.03,,,0.34,WUHU216HW,2013-05-14 04:12:00,
2013-05-13 22:22:00,52.6,43.5,29.90,NNE,23,2.9,8.9,71,0.02,,,0.34,WUHU216HW,2013-05-14 04:22:00,
2013-05-13 22:32:00,52.4,43.3,29.90,ESE,113,3.4,7.2,71,0.01,,,0.34,WUHU216HW,2013-05-14 04:32:00,
2013-05-13 22:42:00,52.6,42.3,29.90,SSW,203,0.4,3.8,68,0.00,,,0.34,WUHU216HW,2013-05-14 04:42:00,
2013-05-13 22:52:00,52.6,41.5,29.91,NW,315,3.8,8.5,66,0.00,,,0.34,WUHU216HW,2013-05-14 04:52:00,
2013-05-13 23:03:00,52.7,41.3,29.91,South,180,0.4,8.3,65,0.00,,,0.34,WUHU216HW,2013-05-14 05:03:00,
2013-05-13 23:13:00,52.6,40.7,29.91,NE,45,4.3,6.7,64,0.00,,,0.34,WUHU216HW,2013-05-14 05:13:00,
2013-05-13 23:23:00,52.6,41.1,29.90,ENE,68,1.3,4.5,65,0.00,,,0.34,WUHU216HW,2013-05-14 05:23:00,
2013-05-13 23:33:00,52.2,40.8,29.89,East,90,7.2,7.2,65,0.00,,,0.34,WUHU216HW,2013-05-14 05:33:00,
2013-05-13 23:43:00,52.0,40.6,29.89,ESE,113,1.1,4.5,65,0.00,,,0.34,WUHU216HW,2013-05-14 05:43:00,
2013-05-13 23:53:00,52.0,40.6,29.89,East,90,2.9,6.9,65,0.00,,,0.34,WUHU216HW,2013-05-14 05:53:00,